Location: Igon
(43.1667°N, 0.2333°W)
Time: 14:10:50
(UTC+00:00)

ADEOS - Pass Details

Date: 29 November 2020
Orbit: 792 x 795 km, 98.9° (Epoch: 24 January)

Event Time Altitude Azimuth Distance (km) Brightness Sun altitude
Rises 04:27:57 0° 16° (NNE) 3,307 6.9 -29.1°
Reaches altitude 10° 04:30:19 10° 20° (NNE) 2,373 6.2 -28.7°
Maximum altitude 04:35:32 66° 102° (ESE) 868 3.8 -27.8°
Drops below altitude 10° 04:40:42 10° 185° (S) 2,354 6.0 -26.8°
Sets 04:43:02 0° 188° (S) 3,279 6.8 -26.4°
